Location: Gradaro
(45.0833°N, 10.8833°E)
Time: 10:28:49
(UTC+00:00)

FENGYUN 1C DEB - Pass Details

Date: 29 June 2021
Orbit: 803 x 830 km, 98.8° (Epoch: 28 July)

Event Time Altitude Azimuth Distance (km) Brightness Sun altitude
Exits shadow 23:12:02 10° 247° (WSW) 2,427 ? -21.7°
Reaches altitude 10° 23:12:15 10° 249° (WSW) 2,397 ? -21.7°
Maximum altitude 23:14:19 12° 273° (W) 2,248 ? -21.7°
Drops below altitude 10° 23:16:24 10° 296° (WNW) 2,411 ? -21.7°
Sets 23:20:25 0° 326° (NW) 3,358 ? -21.7°
